Regional Weather Roundup
Issued by NWS

Home | Current Version | Previous Version | Graphics & Text | Print | Product List | Glossary On
Versions: 1 2 3 4 5 6 7 8 9 10 11 12 13 14 15 16 17 18 19 20 21 22 23 24 25 26 27 28 29 30 31 32 33 34 35 36 37 38 39 40 41 42 43 44 45 46 47 48 49 50
000
ASUS45 KSLC 271510
RWRUT

UTAH REGIONAL WEATHER ROUNDUP
NATIONAL WEATHER SERVICE SALT LAKE CITY UT
900 AM MDT WED MAY 27 2015

UTZ001>011-023>025-271600-

NORTHERN UTAH

CITY           SKY/WX    TMP DP  RH WIND       PRES   REMARKS
BRIGHAM CITY   CLOUDY    55  50  84 CALM      30.08S
HILL AFB       CLOUDY    56  47  71 S14       30.09R
LOGAN          MOSUNNY   50  46  86 CALM      30.08S
OGDEN          CLOUDY    56  47  71 S10       30.08R
PROVO AIRPORT  MOSUNNY   57  45  62 SE3       30.09F
SALT LAKE CITY PTSUNNY   59  48  67 CALM      30.08R
VERNAL         SUNNY     54  46  74 CALM      30.16S
WENDOVER       PTSUNNY   54  48  82 NE8       30.08R
HEBER CITY     SUNNY     46  43  87 CALM      30.14S
WEST JORDAN    PTSUNNY   59  48  67 S10G16    30.09S

$$

UTZ012>022-026-027-271600-

SOUTHERN/CENTRAL UTAH

CITY           SKY/WX    TMP DP  RH WIND       PRES   REMARKS
BLANDING       SUNNY     61  43  53 S3        30.25R
BRYCE CANYON   SUNNY     52  39  61 CALM      30.24R
CEDAR CITY     SUNNY     57  39  51 VRB3      30.12S
DELTA          SUNNY     57  44  62 N9        30.11R
HANKSVILLE     SUNNY     63  45  51 CALM      30.13S
MILFORD        MOSUNNY   53  47  79 CALM      30.09R
MOAB/CYNLANDS  SUNNY     61  46  57 E8        30.11S
PRICE          MOSUNNY   56  40  55 E5        30.17R
ST GEORGE      SUNNY     66  37  34 S5        30.05R

$$

REGIONAL REPORTS     COLORADO/ARIZONA

CITY           SKY/WX    TMP DP  RH WIND       PRES   REMARKS
CRAIG, CO      MOSUNNY   56  43  61 SW7       30.18R
GRAND JUNCTION SUNNY     56  49  77 S3        30.15R
RIFLE          SUNNY     54  45  71 CALM      30.19S
MONTROSE       SUNNY     55  44  66 W3        30.19S
CORTEZ         SUNNY     58  43  57 CALM      30.18S
PAGE, AZ       MOSUNNY   65  43  44 CALM      30.10R
GRAND CANYON   SUNNY     61  29  29 CALM      30.20R
KINGMAN        MOSUNNY   71  27  19 S5        30.02R
FLAGSTAFF      SUNNY     59  29  31 CALM      30.22R

$$

REGIONAL REPORTS    NEVADA/IDAHO/WYOMING

CITY           SKY/WX    TMP DP  RH WIND       PRES   REMARKS
LAS VEGAS, NV  MOSUNNY   76  34  21 S3        29.91R
ELY            MOSUNNY   52  43  71 CALM      30.14S
ELKO           SUNNY     54  46  74 E3        30.08S
POCATELLO, ID  PTSUNNY   52  50  93 CALM      30.06S
BURLEY         MOSUNNY   56  47  71 SW5       30.03R
EVANSTON, WY   CLOUDY    47  40  76 CALM      30.17S
ROCK SPRINGS   SUNNY     51  42  71 W16       30.16R
KEMMERER       MOSUNNY   48  41  76 NW5       30.18S

$$


USA.gov is the U.S. government's official web portal to all federal, state and local government web resources and services.